This is the latest recevied weather packets stored in our database for station/object OK1KKY-18. If no packets are shown the sender has not sent any weather packets the latest 10 day(s).
| Time | Temp. | Humidity | Pressure | Rain* | Wind** | Luminosity | Snow |
|---|---|---|---|---|---|---|---|
| 1787563662 | 16.67° C | 52% | 1023.6 hPa | - | - | - | - |
| 1787563032 | 16.11° C | 54% | 1023.8 hPa | - | - | - | - |
| 1787562432 | 16.67° C | 53% | 1023.6 hPa | - | - | - | - |
| 1787561832 | 16.11° C | 54% | 1023.7 hPa | - | - | - | - |
| 1787561232 | 16.11° C | 54% | 1023.7 hPa | - | - | - | - |
| 1787560632 | 16.11° C | 54% | 1023.6 hPa | - | - | - | - |
| 1787560032 | 15.56° C | 53% | 1023.7 hPa | - | - | - | - |
| 1787559432 | 15.56° C | 53% | 1023.7 hPa | - | - | - | - |
| 1787558832 | 15.56° C | 54% | 1023.7 hPa | - | - | - | - |
| 1787558232 | 15° C | 60% | 1023.8 hPa | - | - | - | - |
| 1787557632 | 15° C | 62% | 1023.8 hPa | - | - | - | - |
| 1787557032 | 14.44° C | 65% | 1023.7 hPa | - | - | - | - |
| 1787556432 | 13.89° C | 70% | 1023.7 hPa | - | - | - | - |
| 1787555832 | 12.78° C | 77% | 1023.9 hPa | - | - | - | - |
| 1787555233 | 12.22° C | 82% | 1023.9 hPa | - | - | - | - |
| 1787554632 | 11.67° C | 86% | 1024 hPa | - | - | - | - |
| 1787554032 | 10.56° C | 88% | 1023.9 hPa | - | - | - | - |
| 1787553432 | 10° C | 91% | 1023.9 hPa | - | - | - | - |
| 1787552832 | 9.44° C | 89% | 1024 hPa | - | - | - | - |
| 1787552232 | 9.44° C | 91% | 1024.1 hPa | - | - | - | - |
| 1787551632 | 8.89° C | 93% | 1024.1 hPa | - | - | - | - |
| 1787551032 | 8.33° C | 95% | 1024.1 hPa | - | - | - | - |
| 1787550432 | 7.78° C | 95% | 1024.2 hPa | - | - | - | - |
| 1787549832 | 7.22° C | 96% | 1024.1 hPa | - | - | - | - |
| 1787549232 | 7.22° C | 98% | 1024.1 hPa | - | - | - | - |
* Rain since midnight (hover to see other rain measurements)
** Current wind speed in m/s (hover to see current wind gust speed)